sat.trackr.live / text

‹ back to catalog

EDRS-C

NORAD 44475 · 2019-049A

PAYLOAD ACTIVE UNKNOWN

§ Identity

Operator
Country
ESA
Launch date
2019-08-06
Launch site
FRGUI
Launch vehicle
Mass (kg)
RCS (m²)

Purposes: comms

External: N2YO · Heavens-Above · Gunter

§ Orbital elements

Epoch: 2026-09-15T22:38:38.792256Z

Period
1,436.10 min
Inclination
0.0252°
Eccentricity
0.0000980
Mean motion
1.00271757 rev/d
Perigee alt
35,782.5 km
Apogee alt
35,790.7 km
Semi-major
42,164.7 km
B*
0.0000e+0
RAAN
222.8939°
Arg perigee
304.7163°
Mean anomaly
309.4548°
Rev number
2,612

§ Raw data

EDRS-C1 44475U 19049A   26258.94350454 -.00000267  00000+0  00000+0 0  99982 44475   0.0252 222.8939 0000980 304.7163 309.4548  1.00271757 26125

JSON: /api/v1/satellites/44475 · /tle

For live sub-satellite position, see the globe view (requires WebGL).

§ Visibility from observer

Set your observer location to see the next 7 days of passes ≥ 10°. The values pass through the URL so the page stays shareable.

No JS? Fill the form by hand. The geolocation button needs JavaScript.